FW5940 Weather Reports


Display with metric or nautical units.
time (UTC)temp
F
wind
direction
speed
MPH
gust
MPH
rain 1hr
in
rain 24hr
in
rain mn
in
humidity
%
barometer
mb
20260510152518 73 96 4.0 8.0 0.00 0.00 0.00 44 1006.9
20260510151515 73 55 2.0 6.0 0.00 0.00 0.00 44 1006.9
20260510150518 73 68 3.0 6.0 0.00 0.00 0.00 44 1007.1
20260510145515 73 31 3.0 7.0 0.00 0.00 0.00 43 1007.1
20260510144517 73 78 3.0 9.0 0.00 0.00 0.00 43 1007.2
20260510143517 73 59 5.0 12.0 0.00 0.00 0.00 43 1007.4
20260510142518 73 63 6.0 11.0 0.00 0.00 0.00 42 1007.4
20260510141516 73 64 4.0 10.0 0.00 0.00 0.00 45 1007.5
20260510140515 72 45 4.0 8.0 0.00 0.00 0.00 46 1007.7
20260510135526 71 85 3.0 6.0 0.00 0.00 0.00 47 1007.9
20260510134515 71 71 5.0 9.0 0.00 0.00 0.00 48 1008.1
20260510133516 72 85 6.0 10.0 0.00 0.00 0.00 48 1008.1
20260510132516 72 86 4.0 9.0 0.00 0.00 0.00 48 1008.3
20260510131517 72 88 4.0 10.0 0.00 0.00 0.00 49 1008.3
20260510130520 73 82 3.0 9.0 0.00 0.00 0.00 48 1008.3
20260510125552 74 63 7.0 13.0 0.00 0.00 0.00 45 1008.3
20260510124516 74 76 8.0 14.0 0.00 0.00 0.00 46 1008.4
20260510123515 73 75 5.0 10.0 0.00 0.00 0.00 49 1008.5
20260510122521 72 87 5.0 11.0 0.00 0.00 0.00 49 1008.8
20260510121515 73 89 4.0 9.0 0.00 0.00 0.00 49 1008.9
20260510120517 73 109 6.0 12.0 0.00 0.00 0.00 49 1009.1
20260510115516 73 91 7.0 12.0 0.00 0.00 0.00 49 1009.2
20260510114515 73 71 4.0 8.0 0.00 0.00 0.00 48 1009.4
20260510113517 72 94 6.0 11.0 0.00 0.00 0.00 49 1009.5
20260510112526 71 99 4.0 11.0 0.00 0.00 0.00 51 1009.6
20260510111516 71 95 5.0 11.0 0.00 0.00 0.00 52 1009.8
20260510110516 71 98 5.0 10.0 0.00 0.00 0.00 52 1009.9
20260510105516 70 108 7.0 12.0 0.00 0.00 0.00 52 1010.0
20260510104536 71 100 4.0 10.0 0.00 0.00 0.00 54 1010.2
20260510103515 70 103 6.0 12.0 0.00 0.00 0.00 54 1010.2
20260510102536 69 94 6.0 12.0 0.00 0.00 0.00 55 1010.3
20260510101515 69 97 5.0 13.0 0.00 0.00 0.00 54 1010.3
20260510100518 68 93 7.0 13.0 0.00 0.00 0.00 55 1010.5
20260510095536 68 69 6.0 12.0 0.00 0.00 0.00 56 1010.5
20260510094517 67 87 5.0 11.0 0.00 0.00 0.00 57 1010.7
20260510093516 67 96 4.0 12.0 0.00 0.00 0.00 58 1010.8
20260510092515 67 105 7.0 12.0 0.00 0.00 0.00 57 1010.8
20260510091517 67 96 6.0 11.0 0.00 0.00 0.00 56 1010.9
20260510090535 67 86 5.0 10.0 0.00 0.00 0.00 57 1011.0
20260510085517 66 67 4.0 9.0 0.00 0.00 0.00 60 1011.0
20260510084538 66 88 5.0 9.0 0.00 0.00 0.00 59 1011.1
20260510083516 66 82 4.0 9.0 0.00 0.00 0.00 61 1011.0
20260510082516 65 55 4.0 8.0 0.00 0.00 0.00 64 1011.0
20260510081517 64 110 5.0 9.0 0.00 0.00 0.00 64 1011.2
20260510080516 63 65 3.0 9.0 0.00 0.00 0.00 64 1011.4
20260510075515 63 89 4.0 10.0 0.00 0.00 0.00 65 1011.4
20260510074516 61 74 3.0 9.0 0.00 0.00 0.00 66 1011.6
20260510073537 61 107 4.0 10.0 0.00 0.00 0.00 67 1011.7
20260510072516 60 85 3.0 7.0 0.00 0.00 0.00 69 1011.6
20260510071517 58 95 3.0 6.0 0.00 0.00 0.00 71 1011.7
20260510070517 57 76 4.0 9.0 0.00 0.00 0.00 73 1011.7
20260510065516 56 73 5.0 9.0 0.00 0.00 0.00 75 1011.9
20260510064515 56 89 4.0 7.0 0.00 0.00 0.00 75 1011.9
20260510063516 55 81 3.0 7.0 0.00 0.00 0.00 77 1012.0
20260510062519 55 80 3.0 9.0 0.00 0.00 0.00 78 1011.9
20260510061517 54 104 3.0 7.0 0.00 0.00 0.00 78 1012.1
20260510060516 54 98 4.0 9.0 0.00 0.00 0.00 79 1012.1
20260510055517 53 98 2.0 6.0 0.00 0.00 0.00 79 1012.1
20260510054516 52 80 4.0 9.0 0.00 0.00 0.00 80 1012.2
20260510053515 52 109 3.0 7.0 0.00 0.00 0.00 81 1012.2
20260510052517 51 75 3.0 8.0 0.00 0.00 0.00 82 1012.1
20260510051516 51 102 2.0 4.0 0.00 0.00 0.00 83 1012.3
20260510050517 50 87 1.0 4.0 0.00 0.00 0.00 84 1012.4
20260510045557 49 88 3.0 7.0 0.00 0.00 0.00 84 1012.4
20260510044515 49 113 3.0 6.0 0.00 0.00 0.00 85 1012.5
20260510043515 48 106 2.0 6.0 0.00 0.00 0.00 86 1012.5
20260510042515 47 106 2.0 6.0 0.00 0.00 0.00 85 1012.5
20260510041516 48 106 0.0 1.0 0.00 0.00 0.00 85 1012.6
20260510040516 48 122 1.0 3.0 0.00 0.00 0.00 85 1012.6
20260510035518 48 108 2.0 4.0 0.00 0.00 0.00 85 1012.6
20260510034516 48 105 1.0 3.0 0.00 0.00 0.00 85 1012.7
20260510033538 48 96 1.0 3.0 0.00 0.00 0.00 85 1012.7
20260510032515 48 93 1.0 2.0 0.00 0.00 0.00 84 1012.7
20260510031515 48 86 0.0 1.0 0.00 0.00 0.00 83 1012.7
20260510030516 49 87 1.0 2.0 0.00 0.00 0.00 83 1012.8
20260510025517 50 83 2.0 4.0 0.00 0.00 0.00 82 1012.8
20260510024517 50 76 2.0 6.0 0.00 0.00 0.00 82 1012.9
20260510023516 50 91 4.0 8.0 0.00 0.00 0.00 82 1012.9
20260510022537 49 92 3.0 7.0 0.00 0.00 0.00 84 1013.0
20260510021515 48 99 2.0 6.0 0.00 0.00 0.00 84 1013.0
20260510020516 48 79 1.0 2.0 0.00 0.00 0.00 84 1013.0
20260510015536 48 78 1.0 3.0 0.00 0.00 0.00 83 1013.1
20260510014516 48 78 0.0 1.0 0.00 0.00 0.00 82 1013.2
20260510013516 49 0.0 0.0 0.00 0.00 0.00 81 1013.2
20260510012517 50 78 1.0 2.0 0.00 0.00 0.00 80 1013.2
20260510011517 50 77 1.0 2.0 0.00 0.00 0.00 79 1013.3
20260510010536 51 76 1.0 2.0 0.00 0.00 0.00 78 1013.4
20260510005515 52 75 1.0 2.0 0.00 0.00 0.00 77 1013.4
20260510004516 52 76 2.0 3.0 0.00 0.00 0.00 75 1013.5
20260510003515 53 93 2.0 5.0 0.00 0.00 0.00 74 1013.5
20260510002517 53 107 2.0 6.0 0.00 0.00 0.00 73 1013.6
20260510001516 54 90 2.0 7.0 0.00 0.00 0.00 72 1013.6
20260510000517 54 95 4.0 10.0 0.00 0.00 0.00 71 1013.7
20260509235515 55 98 3.0 9.0 0.00 0.00 0.00 71 1013.8
20260509234515 55 95 4.0 8.0 0.00 0.00 0.00 70 1013.9
20260509233516 55 85 3.0 7.0 0.00 0.00 0.00 70 1014.0
20260509232535 55 81 3.0 8.0 0.00 0.00 0.00 70 1014.2
20260509231537 55 85 2.0 4.0 0.00 0.00 0.00 69 1014.3
20260509230515 55 77 2.0 5.0 0.00 0.00 0.00 68 1014.3
20260509225515 55 86 3.0 7.0 0.00 0.00 0.00 69 1014.4
20260509224515 54 99 3.0 7.0 0.00 0.00 0.00 71 1014.4
20260509223518 54 83 1.0 4.0 0.00 0.00 0.00 71 1014.4
20260509222516 54 69 1.0 2.0 0.00 0.00 0.00 69 1014.5
20260509221515 55 68 1.0 2.0 0.00 0.00 0.00 68 1014.4
20260509220517 55 68 2.0 4.0 0.00 0.00 0.00 67 1014.6
20260509215515 55 66 2.0 4.0 0.00 0.00 0.00 67 1014.6
20260509214517 55 84 2.0 5.0 0.00 0.00 0.00 67 1014.6
20260509213515 56 79 2.0 6.0 0.00 0.00 0.00 67 1014.6
20260509212517 56 93 2.0 3.0 0.00 0.00 0.00 67 1014.6
20260509211516 56 65 3.0 5.0 0.00 0.00 0.00 67 1014.7
20260509210536 56 76 2.0 3.0 0.00 0.00 0.00 67 1014.8
20260509205517 56 84 1.0 4.0 0.00 0.00 0.00 67 1015.0
20260509204516 57 92 1.0 3.0 0.00 0.00 0.00 65 1015.0
20260509203517 57 91 2.0 4.0 0.00 0.00 0.00 65 1015.0
20260509202516 58 66 1.0 3.0 0.00 0.00 0.00 63 1015.0
20260509201516 58 90 1.0 3.0 0.00 0.00 0.00 62 1015.0
20260509200516 59 85 2.0 4.0 0.00 0.00 0.00 62 1015.1
20260509195515 59 82 2.0 7.0 0.00 0.00 0.00 62 1015.1
20260509194516 59 65 2.0 4.0 0.00 0.00 0.00 62 1015.2
20260509193516 59 62 3.0 4.0 0.00 0.00 0.00 63 1015.2
20260509192515 60 62 2.0 3.0 0.00 0.00 0.00 62 1015.2
20260509191516 60 75 2.0 3.0 0.00 0.00 0.00 62 1015.3
20260509190515 61 75 1.0 3.0 0.00 0.00 0.00 61 1015.2
20260509185516 61 68 3.0 4.0 0.00 0.00 0.00 60 1015.1
20260509184515 62 72 2.0 4.0 0.00 0.00 0.00 59 1015.1
20260509183516 63 80 2.0 4.0 0.00 0.00 0.00 57 1015.0
20260509182519 64 58 3.0 5.0 0.00 0.00 0.00 55 1014.8
20260509181518 65 62 4.0 6.0 0.00 0.00 0.00 54 1014.8
20260509180515 65 62 6.0 10.0 0.00 0.00 0.00 53 1014.7
20260509175518 66 67 5.0 9.0 0.00 0.00 0.00 53 1014.7
20260509174518 66 62 6.0 11.0 0.00 0.00 0.00 51 1014.8
20260509173515 67 66 5.0 10.0 0.00 0.00 0.00 50 1014.7
20260509172517 68 64 6.0 13.0 0.00 0.00 0.00 49 1014.7
20260509171516 69 65 4.0 9.0 0.00 0.00 0.00 48 1014.8
20260509170515 69 62 6.0 11.0 0.00 0.00 0.00 48 1014.8
20260509165516 69 76 5.0 10.0 0.00 0.00 0.00 48 1014.8
20260509164517 69 96 5.0 11.0 0.00 0.00 0.00 48 1014.8
20260509163516 69 108 5.0 10.0 0.00 0.00 0.00 48 1014.8
20260509162515 69 104 4.0 10.0 0.00 0.00 0.00 48 1014.9
20260509161517 69 85 4.0 12.0 0.00 0.00 0.00 48 1014.8
20260509160515 70 67 3.0 8.0 0.00 0.00 0.00 48 1014.8
20260509155515 70 59 5.0 10.0 0.00 0.00 0.00 48 1014.8
20260509154516 70 60 4.0 10.0 0.00 0.00 0.00 48 1015.1
20260509153516 71 98 3.0 7.0 0.00 0.00 0.00 48 1014.9